QPF
0.00 0.00 0.00 0.00 0.00 0.00 0.00 0.00 0.00 0.00 0.00 0.00 0.00 0.00 0.00 0.00 0.00 0.00 0.00 0.00 0.00 0.00 0.00 0.01 0.01 0.02 0.02 0.03 0.02 0.01 0.00 0.00 0.00 0.00 0.00 0.00 0.00 0.00 0.00 0.00 0.00 0.00 0.00 0.00 0.00 0.00 0.00 0.00 0.00
0.00 0.00 0.00 0.00 0.00 0.00 0.00 0.00 0.00 0.00 0.00 0.00 0.00 0.00 0.00 0.00 0.00 0.00 0.00 0.00 0.00 0.00 0.00 0.00 0.01 0.01 0.02 0.02 0.02 0.01 0.01 0.00 0.00 0.00 0.00 0.00 0.00 0.00 0.00 0.00 0.00 0.00 0.00 0.00 0.00 0.00 0.00 0.00 0.00
0.00 0.00 0.00 0.00 0.00 0.00 0.00 0.00 0.00 0.00 0.00 0.00 0.00 0.00 0.00 0.00 0.00 0.00 0.00 0.00 0.00 0.00 0.00 0.00 0.01 0.01 0.02 0.02 0.02 0.01 0.01 0.00 0.00 0.00 0.00 0.00 0.00 0.00 0.00 0.00 0.00 0.00 0.00 0.00 0.00 0.00 0.00 0.00 0.00
0.00 0.00 0.00 0.00 0.00 0.00 0.00 0.00 0.00 0.00 0.00 0.00 0.00 0.00 0.00 0.00 0.00 0.00 0.00 0.00 0.00 0.00 0.00 0.00 0.01 0.01 0.01 0.01 0.02 0.02 0.01 0.00 0.00 0.00 0.00 0.00 0.00 0.00 0.00 0.00 0.00 0.00 0.00 0.00 0.00 0.00 0.00 0.00 0.00
0.00 0.00 0.00 0.00 0.00 0.00 0.00 0.00 0.00 0.00 0.00 0.00 0.00 0.00 0.00 0.00 0.00 0.00 0.00 0.00 0.00 0.00 0.00 0.00 0.01 0.01 0.01 0.01 0.01 0.02 0.01 0.00 0.00 0.00 0.00 0.00 0.00 0.00 0.00 0.00 0.00 0.00 0.00 0.00 0.00 0.00 0.00 0.00 0.00
0.00 0.00 0.00 0.00 0.00 0.00 0.00 0.00 0.00 0.00 0.00 0.00 0.00 0.00 0.00 0.00 0.00 0.00 0.00 0.00 0.00 0.00 0.00 0.00 0.01 0.01 0.01 0.01 0.01 0.02 0.01 0.00 0.00 0.00 0.00 0.00 0.00 0.00 0.00 0.00 0.00 0.00 0.00 0.00 0.00 0.00 0.00 0.00 0.00
0.00 0.00 0.00 0.00 0.00 0.00 0.00 0.00 0.00 0.00 0.00 0.00 0.00 0.00 0.00 0.00 0.00 0.00 0.00 0.00 0.00 0.00 0.00 0.00 0.01 0.00 0.00 0.00 0.01 0.02 0.01 0.01 0.00 0.00 0.00 0.00 0.00 0.00 0.00 0.00 0.00 0.00 0.00 0.00 0.00 0.00 0.00 0.00 0.00
0.00 0.00 0.00 0.00 0.00 0.00 0.00 0.00 0.00 0.00 0.00 0.00 0.00 0.00 0.00 0.00 0.00 0.00 0.00 0.00 0.00 0.00 0.00 0.00 0.00 0.00 0.00 0.00 0.00 0.01 0.01 0.00 0.00 0.00 0.00 0.00 0.00 0.00 0.00 0.00 0.00 0.00 0.00 0.00 0.00 0.00 0.00 0.00 0.00
0.00 0.00 0.00 0.00 0.00 0.00 0.00 0.00 0.00 0.00 0.00 0.00 0.00 0.00 0.00 0.00 0.00 0.00 0.00 0.00 0.00 0.00 0.00 0.00 0.00 0.00 0.00 0.00 0.00 0.00 0.00 0.00 0.00 0.00 0.00 0.00 0.00 0.00 0.00 0.00 0.00 0.00 0.00 0.00 0.00 0.00 0.00 0.00 0.00
0.00 0.00 0.00 0.00 0.00 0.00 0.00 0.00 0.00 0.00 0.00 0.00 0.00 0.00 0.00 0.00 0.00 0.00 0.00 0.00 0.00 0.00 0.00 0.00 0.00 0.00 0.00 0.00 0.00 0.00 0.00 0.00 0.00 0.00 0.00 0.00 0.00 0.00 0.00 0.00 0.00 0.00 0.00 0.00 0.00 0.00 0.00 0.00 0.00
0.00 0.00 0.00 0.00 0.00 0.00 0.00 0.00 0.00 0.00 0.00 0.00 0.00 0.00 0.00 0.00 0.00 0.00 0.00 0.00 0.00 0.00 0.00 0.00 0.00 0.00 0.00 0.00 0.00 0.00 0.00 0.00 0.00 0.00 0.00 0.00 0.00 0.00 0.00 0.00 0.00 0.00 0.00 0.00 0.00 0.00 0.00 0.00 0.00
0.00 0.00 0.00 0.00 0.00 0.00 0.00 0.00 0.00 0.00 0.00 0.00 0.00 0.00 0.00 0.00 0.00 0.00 0.00 0.00 0.00 0.00 0.00 0.00 0.00 0.00 0.00 0.00 0.00 0.00 0.00 0.00 0.00 0.00 0.00 0.00 0.00 0.00 0.00 0.00 0.00 0.00 0.00 0.00 0.00 0.00 0.00 0.00 0.00
0.00 0.00 0.00 0.00 0.00 0.00 0.00 0.00 0.00 0.00 0.00 0.00 0.00 0.00 0.00 0.00 0.00 0.00 0.00 0.00 0.00 0.00 0.00 0.00 0.00 0.00 0.00 0.00 0.00 0.00 0.00 0.00 0.00 0.00 0.00 0.00 0.00 0.00 0.00 0.00 0.00 0.00 0.00 0.00 0.00 0.00 0.00 0.00 0.00
0.00 0.00 0.00 0.00 0.00 0.00 0.00 0.00 0.00 0.00 0.00 0.00 0.00 0.00 0.00 0.00 0.00 0.00 0.00 0.00 0.00 0.00 0.00 0.00 0.00 0.00 0.00 0.00 0.00 0.00 0.00 0.00 0.00 0.00 0.00 0.00 0.00 0.00 0.00 0.00 0.00 0.00 0.00 0.00 0.00 0.00 0.00 0.00 0.00
0.00 0.00 0.00 0.00 0.00 0.00 0.00 0.00 0.00 0.00 0.00 0.00 0.00 0.00 0.00 0.00 0.00 0.00 0.00 0.00 0.00 0.00 0.00 0.00 0.00 0.00 0.00 0.00 0.00 0.00 0.00 0.00 0.00 0.00 0.00 0.00 0.00 0.00 0.00 0.00 0.00 0.00 0.00 0.00 0.00 0.00 0.00 0.00 0.00
0.00 0.00 0.00 0.00 0.00 0.00 0.00 0.00 0.00 0.00 0.00 0.00 0.00 0.00 0.00 0.00 0.00 0.00 0.00 0.00 0.00 0.00 0.00 0.00 0.00 0.00 0.00 0.00 0.00 0.00 0.00 0.01 0.01 0.00 0.00 0.00 0.00 0.00 0.00 0.00 0.00 0.00 0.00 0.00 0.00 0.00 0.00 0.00 0.00
0.00 0.00 0.00 0.00 0.00 0.00 0.00 0.00 0.00 0.00 0.00 0.00 0.00 0.00 0.00 0.00 0.00 0.00 0.00 0.00 0.00 0.00 0.00 0.00 0.00 0.00 0.00 0.00 0.00 0.00 0.00 0.01 0.01 0.01 0.00 0.00 0.00 0.00 0.00 0.00 0.00 0.00 0.00 0.00 0.00 0.00 0.00 0.00 0.00
0.00 0.00 0.00 0.00 0.00 0.00 0.00 0.00 0.00 0.00 0.00 0.00 0.00 0.00 0.00 0.00 0.00 0.00 0.00 0.00 0.00 0.00 0.00 0.00 0.00 0.00 0.00 0.00 0.00 0.00 0.00 0.01 0.00 0.00 0.00 0.00 0.00 0.00 0.00 0.00 0.00 0.00 0.00 0.00 0.00 0.00 0.00 0.00 0.00
0.00 0.00 0.00 0.00 0.00 0.00 0.00 0.00 0.00 0.00 0.00 0.00 0.00 0.00 0.00 0.00 0.00 0.00 0.00 0.00 0.00 0.00 0.00 0.00 0.00 0.00 0.00 0.00 0.00 0.00 0.00 0.00 0.00 0.00 0.00 0.00 0.00 0.00 0.00 0.00 0.00 0.00 0.00 0.00 0.00 0.00 0.00 0.00 0.00
0.00 0.00 0.00 0.00 0.00 0.00 0.00 0.00 0.00 0.00 0.00 0.00 0.00 0.00 0.00 0.00 0.00 0.00 0.00 0.00 0.00 0.00 0.00 0.00 0.00 0.00 0.00 0.00 0.00 0.00 0.00 0.00 0.00 0.00 0.00 0.00 0.00 0.00 0.00 0.00 0.00 0.00 0.00 0.00 0.00 0.00 0.00 0.00 0.00
0.00 0.00 0.00 0.00 0.00 0.00 0.00 0.00 0.00 0.00 0.00 0.00 0.00 0.00 0.00 0.00 0.00 0.00 0.00 0.00 0.00 0.00 0.00 0.00 0.00 0.00 0.00 0.00 0.00 0.00 0.00 0.00 0.00 0.00 0.00 0.00 0.00 0.00 0.00 0.00 0.00 0.00 0.00 0.00 0.00 0.00 0.00 0.00 0.00
0.00 0.00 0.00 0.00 0.00 0.00 0.00 0.00 0.00 0.00 0.00 0.00 0.00 0.00 0.00 0.00 0.00 0.00 0.00 0.00 0.00 0.00 0.00 0.00 0.00 0.00 0.00 0.00 0.00 0.00 0.00 0.00 0.00 0.00 0.00 0.00 0.00 0.00 0.00 0.00 0.01 0.01 0.00 0.00 0.00 0.00 0.00 0.00 0.00
0.01 0.00 0.00 0.00 0.00 0.00 0.00 0.00 0.00 0.00 0.00 0.00 0.00 0.00 0.00 0.00 0.00 0.00 0.00 0.00 0.00 0.00 0.00 0.00 0.00 0.00 0.00 0.00 0.00 0.00 0.00 0.00 0.00 0.00 0.00 0.00 0.00 0.00 0.01 0.01 0.01 0.01 0.01 0.01 0.01 0.01 0.01 0.01 0.01
0.01 0.01 0.02 0.01 0.01 0.03 0.01 0.00 0.00 0.00 0.00 0.00 0.00 0.00 0.00 0.00 0.00 0.00 0.00 0.00 0.00 0.00 0.00 0.00 0.00 0.00 0.00 0.00 0.00 0.00 0.00 0.00 0.00 0.00 0.00 0.00 0.00 0.00 0.00 0.01 0.01 0.01 0.01 0.01 0.01 0.01 0.01 0.01 0.01
0.02 0.04 0.06 0.06 0.06 0.04 0.01 0.00 0.00 0.00 0.00 0.00 0.00 0.00 0.00 0.00 0.00 0.00 0.00 0.00 0.00 0.00 0.00 0.00 0.00 0.00 0.00 0.00 0.00 0.00 0.00 0.00 0.00 0.00 0.00 0.00 0.00 0.00 0.01 0.01 0.01 0.01 0.01 0.01 0.01 0.01 0.01 0.01 0.00
0.01 0.03 0.05 0.05 0.03 0.01 0.00 0.00 0.00 0.00 0.00 0.00 0.00 0.00 0.00 0.00 0.00 0.00 0.00 0.00 0.00 0.00 0.00 0.00 0.00 0.00 0.00 0.00 0.00 0.00 0.00 0.00 0.00 0.00 0.00 0.00 0.00 0.01 0.01 0.01 0.01 0.01 0.01 0.01 0.01 0.01 0.01 0.01 0.00
0.01 0.01 0.01 0.02 0.02 0.01 0.00 0.00 0.00 0.00 0.00 0.00 0.00 0.00 0.00 0.00 0.00 0.00 0.00 0.00 0.00 0.00 0.00 0.00 0.00 0.00 0.00 0.00 0.00 0.00 0.00 0.00 0.00 0.00 0.00 0.00 0.00 0.00 0.00 0.00 0.01 0.01 0.01 0.01 0.01 0.01 0.01 0.01 0.01
0.01 0.01 0.02 0.04 0.05 0.02 0.00 0.00 0.00 0.00 0.00 0.00 0.00 0.00 0.00 0.00 0.00 0.00 0.00 0.00 0.00 0.00 0.00 0.00 0.00 0.00 0.00 0.00 0.00 0.00 0.00 0.00 0.00 0.00 0.00 0.00 0.00 0.00 0.00 0.00 0.01 0.01 0.01 0.01 0.01 0.01 0.01 0.01 0.01
0.01 0.02 0.03 0.03 0.02 0.01 0.01 0.00 0.00 0.00 0.00 0.00 0.00 0.00 0.00 0.00 0.00 0.00 0.00 0.00 0.00 0.00 0.00 0.00 0.00 0.00 0.00 0.00 0.00 0.00 0.00 0.00 0.00 0.00 0.00 0.00 0.00 0.00 0.00 0.01 0.01 0.01 0.01 0.01 0.01 0.01 0.01 0.01 0.00
0.02 0.03 0.03 0.03 0.02 0.01 0.00 0.00 0.00 0.00 0.00 0.00 0.00 0.00 0.00 0.00 0.00 0.00 0.00 0.00 0.00 0.00 0.00 0.00 0.00 0.00 0.00 0.00 0.00 0.00 0.00 0.00 0.00 0.00 0.00 0.00 0.00 0.00 0.01 0.01 0.01 0.01 0.00 0.00 0.00 0.00 0.00 0.00 0.00
MSLP
1011.66 1012.55 1013.71 1015.01 1016.28 1017.41 1018.28 1018.85 1019.12 1019.14 1019.02 1018.84 1018.67 1018.56 1018.51 1018.48 1018.45 1018.36 1018.21 1018.01 1017.78 1017.59 1017.48 1017.48 1017.61 1017.86 1018.18 1018.54 1018.87 1019.15 1019.37 1019.52 1019.63 1019.72 1019.82 1019.93 1020.04 1020.16 1020.25 1020.30 1020.32 1020.29 1020.23 1020.15 1020.08 1020.03 1020.00 1019.99 1019.99
1012.11 1013.19 1014.47 1015.82 1017.06 1018.06 1018.74 1019.06 1019.07 1018.84 1018.50 1018.15 1017.88 1017.71 1017.66 1017.68 1017.72 1017.73 1017.68 1017.57 1017.44 1017.33 1017.28 1017.35 1017.53 1017.83 1018.20 1018.59 1018.97 1019.30 1019.57 1019.77 1019.93 1020.06 1020.18 1020.30 1020.41 1020.51 1020.58 1020.60 1020.59 1020.53 1020.46 1020.38 1020.30 1020.25 1020.22 1020.22 1020.22
1012.75 1013.94 1015.27 1016.58 1017.70 1018.53 1018.98 1019.06 1018.83 1018.40 1017.90 1017.44 1017.11 1016.94 1016.92 1016.99 1017.11 1017.20 1017.24 1017.22 1017.18 1017.14 1017.17 1017.29 1017.53 1017.87 1018.27 1018.70 1019.11 1019.47 1019.77 1020.01 1020.19 1020.34 1020.47 1020.58 1020.68 1020.75 1020.79 1020.78 1020.74 1020.66 1020.58 1020.50 1020.43 1020.39 1020.37 1020.38 1020.40
1013.53 1014.77 1016.06 1017.26 1018.21 1018.82 1019.04 1018.90 1018.48 1017.90 1017.31 1016.81 1016.48 1016.34 1016.37 1016.51 1016.69 1016.86 1016.97 1017.02 1017.04 1017.07 1017.16 1017.34 1017.61 1017.98 1018.40 1018.84 1019.26 1019.62 1019.93 1020.17 1020.37 1020.52 1020.65 1020.76 1020.84 1020.89 1020.90 1020.88 1020.82 1020.74 1020.65 1020.57 1020.52 1020.49 1020.50 1020.53 1020.57
1014.39 1015.59 1016.78 1017.81 1018.55 1018.93 1018.94 1018.62 1018.08 1017.44 1016.83 1016.36 1016.08 1016.01 1016.10 1016.29 1016.52 1016.73 1016.88 1016.98 1017.04 1017.12 1017.26 1017.47 1017.77 1018.14 1018.56 1018.98 1019.37 1019.71 1020.00 1020.23 1020.42 1020.58 1020.72 1020.83 1020.92 1020.97 1020.98 1020.95 1020.89 1020.81 1020.73 1020.67 1020.63 1020.62 1020.64 1020.69 1020.77
1015.22 1016.35 1017.38 1018.20 1018.71 1018.88 1018.71 1018.28 1017.69 1017.06 1016.51 1016.12 1015.93 1015.94 1016.09 1016.32 1016.57 1016.79 1016.95 1017.07 1017.16 1017.27 1017.43 1017.66 1017.96 1018.32 1018.70 1019.08 1019.42 1019.73 1019.98 1020.19 1020.38 1020.54 1020.70 1020.84 1020.95 1021.02 1021.06 1021.05 1021.01 1020.94 1020.88 1020.83 1020.80 1020.81 1020.84 1020.90 1020.99
1015.96 1016.95 1017.80 1018.40 1018.70 1018.68 1018.38 1017.89 1017.32 1016.76 1016.33 1016.06 1015.99 1016.08 1016.28 1016.53 1016.78 1016.97 1017.12 1017.22 1017.32 1017.44 1017.61 1017.85 1018.15 1018.48 1018.81 1019.13 1019.42 1019.66 1019.88 1020.07 1020.26 1020.45 1020.64 1020.82 1020.99 1021.11 1021.19 1021.22 1021.20 1021.16 1021.11 1021.07 1021.04 1021.05 1021.09 1021.15 1021.23
1016.54 1017.38 1018.02 1018.41 1018.51 1018.34 1017.97 1017.48 1016.96 1016.53 1016.23 1016.11 1016.15 1016.31 1016.54 1016.79 1017.00 1017.16 1017.27 1017.35 1017.44 1017.57 1017.75 1017.99 1018.28 1018.58 1018.87 1019.14 1019.37 1019.56 1019.74 1019.92 1020.13 1020.35 1020.60 1020.84 1021.07 1021.25 1021.38 1021.45 1021.46 1021.44 1021.39 1021.35 1021.33 1021.32 1021.35 1021.40 1021.47
1016.95 1017.62 1018.06 1018.25 1018.18 1017.91 1017.49 1017.03 1016.61 1016.31 1016.16 1016.16 1016.30 1016.51 1016.76 1016.97 1017.14 1017.25 1017.31 1017.37 1017.46 1017.59 1017.79 1018.05 1018.33 1018.62 1018.88 1019.10 1019.29 1019.45 1019.62 1019.80 1020.02 1020.29 1020.59 1020.90 1021.18 1021.42 1021.60 1021.70 1021.74 1021.72 1021.68 1021.64 1021.60 1021.59 1021.60 1021.64 1021.68
1017.22 1017.72 1017.98 1017.99 1017.79 1017.43 1017.00 1016.59 1016.26 1016.07 1016.04 1016.15 1016.35 1016.59 1016.82 1016.99 1017.10 1017.16 1017.19 1017.24 1017.33 1017.49 1017.72 1018.00 1018.30 1018.59 1018.85 1019.05 1019.22 1019.37 1019.52 1019.72 1019.97 1020.27 1020.62 1020.98 1021.31 1021.59 1021.80 1021.92 1021.97 1021.96 1021.92 1021.87 1021.84 1021.82 1021.82 1021.85 1021.88
1017.39 1017.74 1017.84 1017.71 1017.40 1016.99 1016.56 1016.18 1015.93 1015.83 1015.88 1016.04 1016.26 1016.49 1016.68 1016.80 1016.86 1016.88 1016.90 1016.94 1017.06 1017.26 1017.53 1017.86 1018.19 1018.51 1018.77 1018.98 1019.15 1019.30 1019.46 1019.67 1019.94 1020.28 1020.65 1021.03 1021.39 1021.69 1021.91 1022.04 1022.10 1022.10 1022.07 1022.03 1022.01 1022.00 1022.01 1022.04 1022.06
1017.54 1017.76 1017.73 1017.49 1017.11 1016.66 1016.23 1015.88 1015.67 1015.61 1015.68 1015.84 1016.04 1016.23 1016.37 1016.44 1016.46 1016.45 1016.46 1016.53 1016.68 1016.93 1017.26 1017.63 1018.01 1018.36 1018.66 1018.89 1019.07 1019.24 1019.41 1019.63 1019.91 1020.25 1020.63 1021.02 1021.37 1021.67 1021.90 1022.04 1022.10 1022.13 1022.12 1022.12 1022.12 1022.15 1022.19 1022.23 1022.26
1017.72 1017.84 1017.72 1017.41 1016.99 1016.52 1016.09 1015.74 1015.54 1015.46 1015.51 1015.62 1015.76 1015.88 1015.95 1015.97 1015.95 1015.93 1015.95 1016.04 1016.24 1016.54 1016.91 1017.34 1017.76 1018.15 1018.48 1018.74 1018.95 1019.13 1019.32 1019.55 1019.83 1020.16 1020.52 1020.88 1021.23 1021.52 1021.74 1021.89 1021.99 1022.05 1022.09 1022.14 1022.21 1022.29 1022.38 1022.45 1022.50
1017.97 1018.02 1017.85 1017.51 1017.07 1016.61 1016.17 1015.82 1015.58 1015.45 1015.42 1015.44 1015.48 1015.51 1015.51 1015.47 1015.42 1015.40 1015.44 1015.56 1015.79 1016.11 1016.52 1016.98 1017.43 1017.85 1018.21 1018.50 1018.74 1018.95 1019.15 1019.38 1019.65 1019.95 1020.28 1020.62 1020.94 1021.22 1021.46 1021.64 1021.78 1021.90 1022.02 1022.15 1022.30 1022.45 1022.60 1022.72 1022.79
1018.28 1018.29 1018.11 1017.78 1017.37 1016.92 1016.48 1016.11 1015.81 1015.60 1015.45 1015.35 1015.28 1015.20 1015.12 1015.03 1014.96 1014.93 1014.98 1015.11 1015.35 1015.68 1016.10 1016.55 1017.01 1017.44 1017.82 1018.15 1018.42 1018.65 1018.87 1019.10 1019.36 1019.64 1019.94 1020.26 1020.56 1020.84 1021.10 1021.33 1021.54 1021.75 1021.96 1022.18 1022.41 1022.64 1022.84 1023.00 1023.10
1018.62 1018.62 1018.46 1018.18 1017.82 1017.40 1016.98 1016.58 1016.21 1015.88 1015.61 1015.37 1015.16 1014.98 1014.82 1014.68 1014.59 1014.55 1014.59 1014.72 1014.94 1015.25 1015.63 1016.05 1016.50 1016.93 1017.32 1017.67 1017.98 1018.24 1018.49 1018.73 1018.98 1019.25 1019.53 1019.83 1020.13 1020.43 1020.73 1021.02 1021.31 1021.61 1021.92 1022.23 1022.54 1022.83 1023.08 1023.27 1023.38
1018.94 1018.96 1018.85 1018.65 1018.36 1018.00 1017.59 1017.15 1016.70 1016.26 1015.84 1015.45 1015.11 1014.83 1014.59 1014.41 1014.30 1014.25 1014.27 1014.37 1014.55 1014.80 1015.13 1015.50 1015.90 1016.31 1016.72 1017.10 1017.44 1017.75 1018.04 1018.30 1018.56 1018.83 1019.10 1019.39 1019.70 1020.03 1020.38 1020.74 1021.12 1021.51 1021.90 1022.29 1022.65 1022.98 1023.26 1023.46 1023.59
1019.18 1019.25 1019.23 1019.12 1018.92 1018.62 1018.23 1017.76 1017.22 1016.65 1016.08 1015.56 1015.09 1014.71 1014.41 1014.20 1014.07 1014.01 1014.00 1014.06 1014.18 1014.36 1014.60 1014.90 1015.25 1015.64 1016.05 1016.46 1016.86 1017.22 1017.56 1017.86 1018.14 1018.41 1018.69 1018.98 1019.31 1019.67 1020.07 1020.49 1020.94 1021.40 1021.86 1022.29 1022.69 1023.04 1023.32 1023.52 1023.65
1019.33 1019.46 1019.54 1019.55 1019.45 1019.21 1018.83 1018.31 1017.68 1016.99 1016.28 1015.62 1015.05 1014.58 1014.24 1014.01 1013.87 1013.80 1013.77 1013.78 1013.83 1013.93 1014.08 1014.30 1014.60 1014.96 1015.38 1015.82 1016.27 1016.70 1017.09 1017.43 1017.74 1018.03 1018.31 1018.61 1018.95 1019.34 1019.77 1020.24 1020.74 1021.25 1021.74 1022.19 1022.60 1022.94 1023.21 1023.40 1023.53
1019.38 1019.60 1019.80 1019.92 1019.91 1019.73 1019.35 1018.78 1018.06 1017.23 1016.39 1015.61 1014.94 1014.42 1014.05 1013.82 1013.69 1013.62 1013.58 1013.54 1013.53 1013.54 1013.61 1013.75 1013.99 1014.33 1014.75 1015.22 1015.72 1016.21 1016.65 1017.04 1017.37 1017.66 1017.95 1018.25 1018.59 1018.98 1019.43 1019.93 1020.46 1020.98 1021.48 1021.93 1022.32 1022.64 1022.90 1023.09 1023.23
1019.38 1019.69 1020.01 1020.24 1020.31 1020.17 1019.78 1019.14 1018.31 1017.37 1016.41 1015.52 1014.78 1014.22 1013.85 1013.63 1013.52 1013.47 1013.42 1013.37 1013.30 1013.24 1013.22 1013.29 1013.48 1013.78 1014.20 1014.70 1015.23 1015.76 1016.24 1016.65 1016.99 1017.29 1017.56 1017.84 1018.17 1018.55 1019.00 1019.50 1020.03 1020.55 1021.04 1021.48 1021.85 1022.15 1022.40 1022.60 1022.77
1019.36 1019.78 1020.21 1020.54 1020.67 1020.55 1020.12 1019.42 1018.48 1017.42 1016.36 1015.38 1014.59 1014.02 1013.65 1013.47 1013.40 1013.38 1013.34 1013.27 1013.16 1013.04 1012.95 1012.95 1013.08 1013.35 1013.74 1014.24 1014.78 1015.32 1015.82 1016.23 1016.57 1016.84 1017.09 1017.34 1017.64 1018.00 1018.43 1018.92 1019.43 1019.94 1020.42 1020.84 1021.19 1021.49 1021.74 1021.97 1022.19
1019.37 1019.91 1020.44 1020.85 1021.02 1020.90 1020.42 1019.63 1018.60 1017.44 1016.27 1015.24 1014.41 1013.83 1013.50 1013.36 1013.34 1013.36 1013.34 1013.26 1013.12 1012.94 1012.79 1012.72 1012.78 1013.00 1013.36 1013.83 1014.35 1014.88 1015.35 1015.75 1016.05 1016.29 1016.49 1016.71 1016.97 1017.30 1017.71 1018.18 1018.68 1019.18 1019.64 1020.05 1020.41 1020.71 1020.98 1021.25 1021.54
1019.43 1020.08 1020.70 1021.17 1021.37 1021.22 1020.69 1019.82 1018.69 1017.43 1016.20 1015.12 1014.27 1013.71 1013.41 1013.32 1013.34 1013.39 1013.40 1013.31 1013.14 1012.92 1012.71 1012.57 1012.56 1012.71 1013.01 1013.42 1013.90 1014.38 1014.82 1015.17 1015.43 1015.62 1015.78 1015.95 1016.18 1016.48 1016.87 1017.33 1017.82 1018.31 1018.77 1019.19 1019.55 1019.88 1020.18 1020.50 1020.85
1019.54 1020.29 1020.98 1021.49 1021.69 1021.50 1020.91 1019.96 1018.75 1017.43 1016.15 1015.04 1014.19 1013.65 1013.38 1013.32 1013.39 1013.46 1013.48 1013.38 1013.19 1012.92 1012.65 1012.45 1012.37 1012.44 1012.66 1013.01 1013.42 1013.83 1014.21 1014.50 1014.71 1014.86 1014.98 1015.12 1015.32 1015.61 1015.98 1016.43 1016.92 1017.41 1017.88 1018.31 1018.69 1019.03 1019.37 1019.73 1020.13
1019.66 1020.49 1021.23 1021.75 1021.92 1021.69 1021.04 1020.02 1018.76 1017.40 1016.09 1014.98 1014.14 1013.62 1013.38 1013.34 1013.42 1013.51 1013.52 1013.41 1013.19 1012.88 1012.56 1012.30 1012.15 1012.15 1012.30 1012.56 1012.90 1013.24 1013.55 1013.79 1013.95 1014.06 1014.16 1014.28 1014.47 1014.75 1015.12 1015.57 1016.06 1016.56 1017.03 1017.46 1017.85 1018.21 1018.57 1018.96 1019.39
1019.75 1020.63 1021.38 1021.88 1022.01 1021.72 1021.01 1019.95 1018.66 1017.29 1015.99 1014.89 1014.08 1013.58 1013.35 1013.32 1013.40 1013.47 1013.47 1013.34 1013.09 1012.75 1012.40 1012.09 1011.89 1011.83 1011.92 1012.11 1012.38 1012.66 1012.90 1013.10 1013.22 1013.31 1013.39 1013.51 1013.70 1013.98 1014.35 1014.80 1015.29 1015.78 1016.24 1016.67 1017.05 1017.41 1017.77 1018.16 1018.59
1019.75 1020.63 1021.35 1021.80 1021.86 1021.52 1020.77 1019.69 1018.40 1017.06 1015.79 1014.74 1013.96 1013.48 1013.26 1013.22 1013.27 1013.32 1013.28 1013.13 1012.86 1012.50 1012.14 1011.81 1011.59 1011.50 1011.54 1011.68 1011.89 1012.12 1012.33 1012.48 1012.59 1012.67 1012.75 1012.87 1013.07 1013.35 1013.72 1014.15 1014.62 1015.09 1015.53 1015.93 1016.29 1016.62 1016.95 1017.32 1017.73
1019.61 1020.44 1021.09 1021.44 1021.43 1021.02 1020.25 1019.18 1017.93 1016.65 1015.46 1014.47 1013.74 1013.28 1013.06 1013.00 1013.02 1013.02 1012.95 1012.77 1012.50 1012.15 1011.79 1011.48 1011.26 1011.17 1011.19 1011.31 1011.49 1011.69 1011.86 1012.00 1012.10 1012.17 1012.25 1012.38 1012.57 1012.85 1013.20 1013.60 1014.04 1014.46 1014.85 1015.20 1015.52 1015.80 1016.10 1016.42 1016.79
1019.30 1020.04 1020.57 1020.80 1020.69 1020.23 1019.44 1018.41 1017.24 1016.06 1014.97 1014.07 1013.41 1012.98 1012.76 1012.67 1012.65 1012.61 1012.51 1012.31 1012.04 1011.72 1011.40 1011.13 1010.95 1010.88 1010.91 1011.03 1011.19 1011.37 1011.52 1011.64 1011.73 1011.80 1011.88 1012.00 1012.18 1012.44 1012.75 1013.11 1013.48 1013.84 1014.17 1014.46 1014.71 1014.95 1015.19 1015.47 1015.80
Thickness
5761 5762 5760 5750 5726 5703 5704 5715 5720 5724 5727 5732 5731 5727 5721 5719 5717 5718 5729 5731 5731 5727 5723 5721 5718 5715 5713 5710 5707 5705 5702 5700 5698 5696 5695 5694 5692 5691 5690 5689 5688 5687 5686 5685 5684 5683 5683 5682 5682
5761 5761 5752 5734 5709 5693 5703 5718 5721 5727 5733 5731 5731 5728 5726 5727 5731 5729 5728 5730 5729 5726 5722 5720 5717 5714 5711 5708 5705 5702 5699 5697 5694 5693 5691 5690 5688 5687 5685 5684 5682 5681 5680 5679 5678 5677 5676 5676 5675
5761 5758 5739 5719 5705 5700 5711 5724 5726 5733 5733 5733 5729 5730 5730 5730 5732 5730 5732 5731 5728 5724 5721 5718 5715 5712 5708 5705 5702 5699 5696 5694 5691 5689 5687 5685 5684 5682 5680 5679 5677 5676 5674 5673 5672 5671 5670 5669 5668
5755 5744 5729 5713 5711 5715 5721 5730 5730 5731 5733 5733 5731 5728 5731 5736 5736 5735 5734 5731 5726 5722 5719 5716 5713 5709 5706 5703 5699 5696 5693 5690 5688 5685 5683 5681 5679 5677 5675 5673 5671 5670 5669 5667 5666 5665 5664 5663 5662
5747 5730 5714 5704 5713 5722 5728 5732 5732 5731 5731 5732 5730 5727 5729 5736 5738 5736 5733 5730 5725 5721 5717 5714 5711 5707 5704 5700 5697 5693 5690 5687 5684 5681 5679 5677 5674 5672 5670 5668 5666 5665 5663 5662 5660 5659 5658 5657 5656
5729 5718 5701 5700 5712 5723 5730 5734 5732 5731 5731 5731 5728 5725 5731 5735 5734 5733 5732 5728 5724 5720 5716 5712 5709 5706 5702 5698 5694 5691 5687 5684 5681 5678 5675 5672 5670 5667 5665 5663 5661 5659 5658 5656 5655 5654 5652 5651 5650
5721 5708 5702 5706 5709 5719 5730 5734 5732 5730 5729 5731 5730 5725 5730 5733 5733 5731 5729 5725 5721 5717 5713 5710 5707 5704 5700 5696 5692 5688 5685 5681 5678 5675 5671 5668 5666 5663 5661 5658 5656 5654 5653 5651 5650 5648 5647 5645 5644
5723 5709 5704 5702 5707 5717 5731 5734 5736 5732 5732 5736 5733 5727 5728 5734 5731 5728 5724 5720 5717 5714 5711 5708 5705 5702 5698 5693 5690 5686 5682 5678 5675 5671 5668 5665 5662 5659 5656 5654 5651 5649 5647 5646 5644 5642 5641 5639 5638
5723 5701 5697 5706 5709 5719 5730 5730 5735 5738 5734 5732 5733 5735 5736 5733 5728 5723 5718 5714 5712 5711 5709 5706 5703 5699 5695 5691 5687 5683 5679 5675 5672 5668 5664 5661 5658 5654 5651 5649 5646 5644 5642 5640 5638 5637 5635 5633 5632
5710 5695 5706 5717 5720 5723 5727 5729 5731 5731 5729 5730 5732 5733 5731 5728 5726 5722 5718 5715 5712 5710 5707 5704 5701 5697 5693 5689 5685 5680 5676 5672 5669 5665 5661 5657 5654 5650 5647 5644 5642 5639 5637 5635 5633 5631 5629 5627 5626
5709 5702 5712 5719 5723 5725 5725 5727 5730 5726 5722 5728 5731 5732 5726 5723 5722 5721 5720 5718 5716 5713 5708 5704 5700 5696 5691 5687 5682 5678 5674 5670 5665 5661 5657 5653 5650 5646 5643 5640 5637 5635 5632 5629 5627 5625 5623 5621 5620
5705 5708 5712 5717 5722 5722 5722 5724 5724 5724 5728 5737 5737 5735 5727 5723 5722 5722 5720 5718 5715 5711 5708 5704 5699 5694 5689 5685 5680 5676 5671 5667 5663 5659 5654 5650 5646 5642 5638 5635 5632 5629 5627 5624 5622 5619 5617 5615 5614
5701 5705 5711 5714 5716 5717 5719 5718 5720 5724 5732 5733 5733 5729 5726 5724 5724 5724 5723 5718 5713 5710 5707 5703 5698 5692 5687 5682 5678 5673 5669 5665 5660 5656 5651 5647 5642 5638 5634 5631 5627 5624 5621 5619 5616 5613 5611 5609 5608
5699 5701 5704 5707 5710 5713 5712 5714 5714 5723 5728 5728 5727 5725 5724 5724 5724 5721 5718 5715 5713 5710 5707 5703 5697 5692 5686 5681 5676 5672 5667 5662 5657 5653 5649 5644 5640 5635 5631 5626 5623 5620 5617 5614 5611 5608 5605 5603 5601
5695 5693 5695 5700 5703 5707 5707 5703 5711 5723 5722 5721 5721 5721 5722 5722 5722 5721 5721 5719 5716 5712 5708 5702 5697 5691 5685 5680 5675 5670 5665 5659 5654 5650 5646 5641 5637 5632 5627 5623 5619 5615 5612 5609 5605 5602 5600 5597 5595
5684 5678 5677 5692 5697 5700 5696 5693 5714 5719 5716 5716 5716 5717 5717 5720 5721 5722 5721 5719 5716 5711 5707 5702 5697 5691 5685 5679 5673 5668 5662 5657 5652 5647 5643 5638 5634 5629 5624 5619 5615 5611 5607 5604 5600 5597 5593 5590 5588
5664 5661 5668 5680 5692 5692 5689 5690 5709 5714 5711 5710 5713 5714 5714 5716 5719 5720 5719 5718 5715 5711 5707 5701 5696 5691 5685 5678 5672 5666 5660 5655 5650 5644 5640 5635 5630 5626 5621 5616 5612 5607 5602 5598 5595 5591 5587 5584 5581
5654 5657 5662 5668 5682 5683 5680 5686 5703 5708 5706 5706 5709 5711 5712 5714 5720 5721 5719 5717 5714 5710 5706 5701 5695 5690 5683 5675 5668 5661 5656 5651 5647 5642 5637 5632 5628 5623 5618 5612 5608 5603 5598 5593 5589 5585 5581 5577 5574
5657 5655 5656 5664 5675 5674 5673 5680 5696 5703 5702 5704 5707 5709 5711 5715 5720 5720 5718 5715 5711 5707 5703 5699 5693 5688 5680 5672 5665 5659 5653 5649 5644 5640 5635 5630 5625 5620 5614 5609 5604 5599 5594 5589 5584 5579 5575 5570 5567
5649 5648 5650 5657 5666 5666 5665 5674 5690 5697 5702 5706 5709 5710 5711 5713 5715 5716 5714 5711 5708 5706 5702 5698 5693 5687 5681 5675 5668 5660 5654 5648 5643 5637 5632 5627 5622 5617 5611 5606 5600 5595 5590 5584 5579 5574 5568 5564 5560
5642 5642 5647 5649 5655 5658 5656 5669 5684 5696 5700 5704 5707 5709 5711 5712 5712 5712 5710 5708 5705 5703 5701 5697 5692 5686 5680 5673 5664 5655 5648 5642 5637 5632 5628 5624 5619 5614 5609 5603 5598 5592 5586 5580 5575 5570 5564 5558 5552
5635 5645 5645 5644 5639 5635 5643 5642 5673 5683 5688 5698 5704 5705 5706 5708 5709 5708 5707 5705 5702 5701 5698 5695 5689 5683 5677 5670 5662 5655 5649 5643 5639 5634 5628 5622 5616 5611 5606 5600 5594 5589 5583 5577 5572 5566 5560 5554 5547
5638 5642 5637 5636 5632 5628 5632 5631 5660 5673 5683 5695 5701 5703 5704 5705 5704 5704 5704 5702 5701 5697 5693 5690 5685 5679 5673 5667 5661 5654 5649 5644 5637 5630 5624 5618 5612 5607 5602 5596 5591 5585 5579 5574 5568 5562 5555 5550 5544
5632 5627 5620 5615 5614 5615 5630 5623 5644 5665 5682 5692 5699 5701 5701 5701 5700 5700 5699 5698 5695 5691 5687 5684 5680 5675 5669 5664 5658 5652 5647 5640 5632 5626 5620 5614 5609 5603 5598 5592 5587 5582 5576 5570 5564 5558 5552 5545 5539
5623 5614 5603 5604 5602 5612 5626 5620 5644 5673 5682 5687 5693 5695 5697 5696 5695 5693 5693 5691 5689 5686 5682 5679 5675 5671 5666 5660 5655 5650 5644 5638 5631 5625 5618 5612 5605 5600 5595 5589 5583 5578 5573 5567 5560 5553 5547 5541 5535
5616 5615 5603 5601 5601 5607 5616 5618 5653 5675 5680 5683 5685 5689 5691 5692 5689 5689 5689 5686 5683 5681 5678 5674 5670 5667 5662 5656 5652 5646 5640 5634 5629 5623 5617 5610 5605 5599 5593 5586 5581 5575 5569 5562 5555 5549 5543 5536 5530
5608 5606 5612 5600 5598 5598 5608 5623 5648 5672 5675 5679 5681 5683 5685 5686 5685 5684 5683 5681 5678 5676 5673 5669 5666 5662 5658 5653 5647 5642 5636 5630 5625 5619 5613 5607 5602 5596 5589 5582 5576 5570 5564 5557 5550 5544 5537 5530 5524
5613 5606 5596 5592 5590 5593 5604 5615 5638 5664 5671 5675 5676 5678 5680 5680 5679 5678 5677 5675 5673 5670 5667 5664 5660 5657 5653 5648 5642 5638 5632 5627 5621 5614 5608 5602 5597 5591 5584 5577 5571 5565 5558 5552 5545 5538 5532 5524 5518
5598 5598 5599 5592 5590 5590 5595 5621 5654 5661 5668 5669 5671 5673 5674 5674 5673 5672 5670 5669 5666 5664 5660 5657 5654 5650 5646 5642 5637 5632 5627 5621 5615 5609 5603 5597 5591 5585 5579 5572 5566 5559 5553 5546 5539 5532 5525 5518 5511
5602 5599 5595 5591 5588 5586 5590 5622 5661 5659 5661 5662 5665 5667 5669 5668 5667 5666 5664 5661 5659 5657 5654 5651 5648 5644 5641 5636 5631 5626 5620 5614 5609 5603 5598 5592 5585 5579 5573 5566 5560 5553 5547 5540 5532 5525 5518 5511 5504